TimeCDT,TemperatureF,Dew PointF,Humidity,Sea Level PressureIn,VisibilityMPH,Wind Direction,Wind SpeedMPH,Gust SpeedMPH,PrecipitationIn,Events,Conditions,WindDirDegrees,DateUTC
12:56 AM,68.0,59.9,75,30.02,10.0,Calm,Calm,-,N/A,,Scattered Clouds,0,2013-05-17 05:56:00
1:56 AM,65.8,59.9,81,30.04,10.0,Calm,Calm,-,N/A,,Scattered Clouds,0,2013-05-17 06:56:00
2:56 AM,63.9,61.9,93,30.04,10.0,Calm,Calm,-,N/A,,Mostly Cloudy,0,2013-05-17 07:56:00
3:56 AM,61.0,59.9,96,30.05,10.0,Calm,Calm,-,N/A,,Partly Cloudy,0,2013-05-17 08:56:00
4:56 AM,59.0,59.0,100,30.06,9.0,Calm,Calm,-,N/A,,Clear,0,2013-05-17 09:56:00
5:56 AM,59.9,59.9,100,30.07,10.0,Calm,Calm,-,N/A,,Clear,0,2013-05-17 10:56:00
6:56 AM,63.9,61.9,93,30.09,10.0,Calm,Calm,-,N/A,,Clear,0,2013-05-17 11:56:00
7:56 AM,66.9,61.0,81,30.09,10.0,Calm,Calm,-,N/A,,Clear,0,2013-05-17 12:56:00
8:56 AM,72.0,61.0,68,30.10,10.0,Calm,Calm,-,N/A,,Clear,0,2013-05-17 13:56:00
9:56 AM,72.0,63.0,73,30.10,10.0,SSE,6.9,-,N/A,,Clear,150,2013-05-17 14:56:00
10:56 AM,72.9,63.0,71,30.11,10.0,South,4.6,-,N/A,,Clear,170,2013-05-17 15:56:00
11:56 AM,72.9,63.9,73,30.11,10.0,South,5.8,-,N/A,,Partly Cloudy,170,2013-05-17 16:56:00
12:56 PM,75.9,63.0,64,30.10,10.0,South,8.1,-,N/A,,Partly Cloudy,180,2013-05-17 17:56:00
1:56 PM,73.9,64.9,73,30.09,10.0,South,4.6,-,0.00,Rain,Light Rain,190,2013-05-17 18:56:00
2:56 PM,70.9,64.9,81,30.10,4.0,SW,9.2,-,0.00,Rain,Light Rain,230,2013-05-17 19:56:00
3:13 PM,69.8,66.2,88,30.09,2.0,WSW,6.9,-,0.01,Rain,Light Rain,240,2013-05-17 20:13:00
3:15 PM,69.8,66.2,88,30.09,1.8,WSW,5.8,-,0.01,Rain,Rain,240,2013-05-17 20:15:00
3:33 PM,69.8,69.8,100,30.09,3.0,West,4.6,-,0.04,Rain,Light Rain,260,2013-05-17 20:33:00
3:56 PM,68.9,68.9,100,30.08,4.0,WNW,5.8,-,0.04,Rain,Light Rain,300,2013-05-17 20:56:00
4:56 PM,68.9,68.9,100,30.07,7.0,NW,3.5,-,0.00,Rain,Light Rain,320,2013-05-17 21:56:00
5:56 PM,68.0,68.0,100,30.06,3.0,NE,4.6,-,0.00,,Clear,50,2013-05-17 22:56:00
6:39 PM,68.0,68.0,100,30.05,2.5,NE,3.5,-,0.00,,Partly Cloudy,50,2013-05-17 23:39:00
6:48 PM,68.0,68.0,100,30.05,3.0,NE,4.6,-,0.00,,Partly Cloudy,50,2013-05-17 23:48:00
6:56 PM,68.0,68.0,100,30.05,3.0,NE,5.8,-,0.00,,Partly Cloudy,40,2013-05-17 23:56:00
7:05 PM,68.0,68.0,100,30.05,2.5,NE,5.8,-,N/A,,Partly Cloudy,40,2013-05-18 00:05:00
7:16 PM,66.2,66.2,100,30.05,3.0,NE,4.6,-,N/A,,Clear,50,2013-05-18 00:16:00
7:56 PM,66.9,66.9,100,30.05,3.0,Calm,Calm,-,N/A,,Clear,0,2013-05-18 00:56:00
8:56 PM,66.9,66.9,100,30.06,4.0,Calm,Calm,-,N/A,,Scattered Clouds,0,2013-05-18 01:56:00
9:56 PM,65.8,65.8,100,30.08,4.0,Calm,Calm,-,0.00,Rain,Light Rain,0,2013-05-18 02:56:00
10:24 PM,66.2,66.2,100,30.08,2.5,Calm,Calm,-,0.00,,Mostly Cloudy,0,2013-05-18 03:24:00
10:56 PM,65.8,65.8,100,30.07,2.5,Calm,Calm,-,0.00,,Mostly Cloudy,0,2013-05-18 03:56:00
11:35 PM,66.2,66.2,100,30.07,3.0,Calm,Calm,-,0.00,,Scattered Clouds,0,2013-05-18 04:35:00
11:56 PM,65.8,65.8,100,30.06,6.0,Calm,Calm,-,0.00,,Mostly Cloudy,0,2013-05-18 04:56:00